Theta_e
340 336 322 321 320 320 319 318 317 316 317 319 323 326 329 331 330 330 333 334 331 329 329 329 330 330 329 328 328 328 327 328 328 327 327 327 328 329 330 332 333 335 337 337 338 337 335 333 330 327 321 315 311 310 311 314 316 314 313 313 313 313 313 312 312 313 313 313 312 312 312 313 312 313 313 313 313 313 314 314 314 314 314 313 313
330 333 323 321 321 319 320 317 317 316 316 318 322 325 329 330 329 330 333 332 329 329 329 330 330 330 329 328 328 328 328 329 328 327 325 325 325 326 328 329 331 332 333 335 336 334 333 331 327 323 315 310 310 311 313 314 313 313 313 313 313 313 312 312 313 313 313 314 314 314 315 315 315 315 315 315 316 316 316 316 315 315 316 316 316
324 328 321 321 321 319 320 317 317 316 317 318 321 324 327 328 329 331 333 330 329 329 330 330 329 330 329 329 328 328 328 329 328 326 324 323 322 321 322 325 326 327 327 330 330 327 327 327 322 316 311 310 312 312 313 313 313 313 312 313 313 313 312 313 313 312 315 319 320 319 318 318 318 318 317 318 318 318 318 318 318 318 319 319 319
324 325 321 321 321 319 319 318 318 316 317 318 320 323 325 327 329 331 330 329 329 329 330 330 329 329 328 329 329 328 327 327 325 323 321 319 318 317 319 320 320 321 320 320 320 318 321 321 317 312 311 312 313 313 313 313 313 313 313 313 313 313 312 312 313 315 320 326 328 327 325 322 318 319 319 319 319 319 320 319 320 320 320 320 320
328 323 321 321 320 319 319 318 317 316 317 318 319 322 324 327 330 330 329 329 329 329 329 329 329 329 329 329 329 328 326 323 321 319 318 318 318 318 318 318 318 316 314 313 312 315 318 316 313 312 314 313 313 313 312 313 313 313 313 313 313 312 312 313 314 319 327 331 331 331 333 328 317 317 318 318 319 318 319 319 319 320 319 320 321
329 322 322 321 321 320 318 318 317 317 317 318 319 320 324 327 329 330 329 330 328 329 329 329 329 329 328 328 328 325 322 320 318 317 318 318 318 317 316 315 314 312 310 309 310 314 315 313 312 314 314 313 313 313 312 313 313 313 313 312 312 312 312 314 318 325 331 332 332 331 334 332 319 315 318 317 318 318 318 318 318 318 319 319 320
331 322 322 321 321 320 319 319 317 317 317 317 318 321 325 327 329 329 329 329 328 329 329 329 329 329 329 328 326 322 320 319 318 318 318 317 314 312 310 309 309 309 308 308 311 313 312 312 313 314 313 312 312 312 312 312 313 312 312 313 313 314 314 316 320 326 331 332 332 331 332 333 324 318 319 319 319 319 319 319 319 319 319 319 320
334 324 322 321 321 320 319 318 317 316 317 317 318 322 325 327 328 329 329 328 327 329 329 329 329 329 328 327 324 319 320 321 319 319 317 313 309 308 308 308 308 309 308 309 310 311 311 312 313 313 312 312 312 312 312 313 313 313 314 314 315 316 317 318 323 327 329 330 330 331 331 332 330 323 322 323 323 322 322 322 321 321 320 320 320
337 326 321 321 321 320 320 318 318 316 317 317 319 322 326 328 328 329 329 327 327 329 329 328 329 329 328 327 322 319 322 323 319 317 313 310 307 308 309 308 309 309 309 309 310 311 311 312 312 312 312 312 312 313 312 313 314 314 315 316 316 317 320 323 327 330 330 329 328 331 333 333 330 326 325 326 325 325 325 325 324 323 322 322 321
340 328 319 322 320 320 320 318 318 316 317 317 319 323 326 327 328 328 328 327 327 329 329 329 328 328 328 326 320 318 322 324 320 314 309 308 308 309 309 309 309 309 309 309 310 311 311 312 312 312 312 312 312 313 313 314 314 315 316 317 318 319 325 328 330 331 331 330 328 331 333 332 329 325 324 326 326 326 326 327 326 326 325 324 323
341 330 320 321 320 320 320 319 318 316 316 317 319 323 326 328 328 329 328 327 327 328 330 328 328 327 328 325 319 318 321 325 325 314 308 308 309 309 310 310 310 310 310 310 310 311 312 312 312 312 312 312 313 313 313 314 314 316 317 318 320 323 328 330 331 331 331 332 331 333 333 331 330 324 322 325 325 325 327 327 328 328 327 327 326
343 333 322 321 319 320 320 319 319 316 315 316 318 322 326 328 329 329 328 327 326 328 329 328 328 327 328 325 318 316 318 326 327 314 308 310 309 310 311 311 311 310 310 310 311 311 312 312 312 313 312 313 313 313 313 314 316 318 320 322 322 325 329 331 331 332 332 331 332 334 334 333 332 324 322 325 326 326 327 328 329 328 328 328 328
347 337 323 320 319 319 320 319 319 317 315 315 317 321 325 328 329 330 329 327 326 328 329 329 328 328 328 324 319 316 317 324 325 314 309 309 310 312 312 312 312 311 311 311 311 311 312 313 313 313 313 313 313 314 316 318 319 321 322 323 323 326 328 329 331 331 332 332 331 333 332 333 332 325 322 325 326 327 328 329 329 329 329 329 330
348 339 326 322 319 318 319 319 319 318 316 314 315 320 325 327 329 329 329 328 327 327 328 328 328 328 328 325 319 315 315 320 321 313 310 309 309 312 313 313 313 313 312 311 311 311 313 314 314 314 314 314 314 317 318 320 321 322 322 321 322 323 324 327 330 331 331 331 331 330 330 332 332 328 323 325 327 328 329 329 329 330 330 331 331
347 341 331 324 321 318 318 319 319 319 317 315 315 319 323 327 328 329 329 328 328 327 327 328 328 328 328 325 320 316 316 317 317 313 310 309 310 311 313 315 315 315 315 314 313 313 314 315 315 316 316 317 318 319 319 319 319 319 320 319 320 320 321 326 330 331 332 332 331 330 330 331 333 330 324 326 327 329 330 330 331 330 330 331 331
347 343 335 328 324 319 318 319 319 319 318 317 315 317 321 325 328 329 329 329 329 328 327 327 328 329 328 325 321 317 315 315 317 315 311 310 310 310 311 314 315 316 316 317 317 316 316 317 318 318 320 321 320 320 319 318 318 318 317 317 317 317 318 321 326 331 332 331 330 330 331 331 331 330 326 326 328 329 331 331 331 331 330 330 330
348 344 338 331 326 320 318 319 319 320 320 320 318 316 317 322 327 329 330 329 329 328 328 328 328 328 328 325 321 317 316 314 316 316 314 311 310 310 309 311 313 314 315 317 317 317 318 318 318 319 319 318 318 317 316 315 316 315 315 315 314 314 315 314 321 330 332 331 330 331 331 331 332 330 327 326 328 330 331 331 331 331 331 330 330
349 346 342 334 327 321 319 319 320 321 321 322 321 318 316 319 324 329 330 329 329 329 327 328 329 329 328 325 320 317 314 313 314 316 316 312 310 310 310 310 310 312 312 314 314 315 315 316 316 316 316 315 315 314 313 313 313 313 313 313 313 313 313 316 325 331 331 331 331 332 332 331 331 331 330 328 327 329 330 331 331 331 331 331 330
348 347 345 338 328 321 319 319 319 321 322 323 322 322 319 317 321 326 329 329 329 328 328 328 329 329 327 324 320 316 313 313 312 313 316 315 312 310 311 311 311 311 311 311 312 312 313 313 313 313 313 313 313 313 313 312 312 314 315 314 314 312 313 320 328 331 331 330 332 333 332 332 332 332 332 329 327 329 330 330 331 331 331 331 331
348 347 346 340 327 320 321 318 320 321 322 324 324 325 324 320 320 324 328 330 330 329 328 328 329 329 327 325 320 315 311 311 311 312 313 315 315 312 310 311 311 311 311 312 311 311 312 312 313 312 312 313 312 312 312 313 318 323 323 323 319 315 321 329 330 330 331 331 331 332 332 333 332 331 331 329 328 329 329 330 330 331 332 332 331
347 347 345 341 332 323 321 319 323 322 322 325 324 329 330 325 322 323 325 329 330 329 328 329 329 328 327 325 320 314 310 310 311 311 311 313 315 314 313 312 311 311 311 312 311 311 312 311 312 312 312 312 312 315 317 320 327 329 328 330 327 323 329 333 332 332 332 332 332 332 333 333 332 332 331 330 330 331 330 329 330 331 332 332 331
347 346 345 343 338 331 325 322 325 324 322 326 329 334 334 329 327 326 328 329 330 330 329 329 329 328 328 324 320 313 308 309 310 311 311 311 313 313 314 313 311 311 311 311 311 312 311 311 311 312 312 311 315 324 327 328 330 330 329 331 332 331 332 333 332 333 333 333 333 333 333 333 333 332 331 331 331 331 331 330 331 331 332 332 331
347 346 345 344 342 338 332 326 327 329 324 327 333 338 336 332 331 328 330 330 330 330 330 330 329 328 328 324 318 311 313 317 312 310 311 310 311 312 312 313 313 312 310 311 311 311 311 312 311 311 311 313 323 331 331 330 330 330 330 331 333 333 334 333 333 334 334 334 334 334 335 334 333 330 330 331 331 331 331 331 332 332 331 332 331
346 346 345 344 344 341 338 332 333 335 330 331 336 339 337 334 334 332 330 330 330 331 331 331 331 330 329 322 318 318 326 329 315 308 312 310 310 310 311 313 312 312 312 312 312 312 313 311 312 316 318 321 330 333 331 330 330 330 331 332 333 334 334 334 334 335 335 335 335 336 336 334 330 326 327 329 329 330 330 331 331 331 331 331 332
346 346 346 346 345 343 342 337 338 338 334 337 339 339 338 336 337 336 332 330 331 334 333 335 335 333 332 326 327 329 328 325 313 308 310 308 310 310 310 312 312 313 313 313 314 314 314 315 319 326 330 330 332 332 331 331 330 331 333 333 334 335 336 337 336 336 336 336 336 336 335 332 327 325 326 326 328 328 329 330 330 330 330 330 331
345 346 347 345 345 344 343 340 341 339 336 340 341 339 339 337 338 337 333 332 335 338 337 338 337 335 335 331 334 333 322 316 310 308 311 309 309 309 309 310 311 313 312 315 318 317 321 327 330 331 332 332 332 332 332 333 333 333 334 336 336 337 337 337 337 336 336 337 337 335 334 331 327 326 326 326 327 327 328 328 328 329 329 330 330
344 345 346 345 345 343 343 341 341 341 339 341 341 340 340 338 337 337 337 336 336 340 340 340 339 336 335 333 334 329 319 321 315 310 319 320 316 318 320 314 311 312 315 324 329 327 329 333 333 331 331 332 333 334 335 336 337 336 336 337 336 337 337 336 336 336 336 336 335 334 333 331 329 326 327 327 328 328 327 327 328 328 329 329 329
344 346 346 345 344 343 342 342 342 341 340 342 341 341 339 338 339 339 340 339 338 342 341 341 340 338 336 333 331 322 320 333 329 316 323 329 329 332 334 327 323 325 325 333 335 332 332 333 333 332 333 334 334 335 337 337 337 336 336 336 336 336 335 336 336 335 335 334 334 334 333 332 330 328 328 329 328 328 327 326 327 327 328 328 329
345 346 346 345 344 343 343 342 343 342 341 341 341 342 339 338 341 339 341 341 340 343 342 341 341 339 337 333 328 319 325 339 335 320 321 332 336 337 338 334 334 336 333 334 336 333 334 334 335 335 335 337 337 336 336 337 337 335 336 334 333 334 334 335 335 333 333 333 333 334 333 333 332 330 329 330 330 329 328 326 326 326 327 327 328
345 346 346 345 345 344 343 343 343 341 342 342 341 342 338 338 341 340 341 343 342 342 342 341 340 338 336 333 325 320 330 338 333 324 324 334 340 336 337 337 336 337 335 335 337 337 337 336 336 335 336 337 336 336 336 336 335 333 333 332 331 332 333 333 332 333 333 333 333 333 333 333 333 332 331 331 330 329 328 327 326 325 325 326 326
346 346 346 344 345 344 344 343 343 342 342 341 341 342 339 339 341 340 341 342 342 342 341 341 340 337 335 332 323 320 331 338 334 332 333 338 338 329 331 337 336 337 337 336 338 338 338 338 336 332 333 337 337 337 337 335 334 332 330 331 331 331 332 332 333 334 333 333 333 332 333 333 333 334 333 332 330 329 329 328 327 325 324 324 325
346 346 346 345 344 345 344 344 344 343 342 341 342 342 340 340 341 341 341 342 342 341 341 340 339 336 335 333 324 321 331 338 336 336 336 336 331 321 327 336 336 337 338 337 338 337 336 338 336 334 334 337 337 337 336 334 333 332 330 330 331 331 332 333 333 333 332 333 333 333 333 333 333 334 332 330 329 329 329 328 326 326 325 323 325
347 346 347 345 344 344 344 344 343 342 342 341 342 342 341 341 341 341 341 341 342 341 340 339 338 336 336 333 325 322 329 338 336 333 335 336 333 327 330 336 337 339 338 336 338 335 334 336 335 337 337 336 337 337 335 334 333 332 332 331 332 331 332 333 332 332 332 333 334 335 334 334 334 332 329 329 330 330 330 327 326 325 325 325 327
347 347 347 346 345 344 344 344 344 343 342 341 341 342 340 341 341 340 341 341 341 341 339 339 337 336 336 333 328 323 324 335 334 331 336 337 335 332 332 337 339 339 338 336 335 333 333 336 336 338 337 335 336 335 334 334 333 333 333 332 332 331 331 332 332 331 332 333 334 335 335 335 334 331 328 330 331 331 330 329 328 326 325 327 329
347 347 347 347 346 345 343 343 344 343 342 341 341 342 340 340 341 340 341 341 340 339 338 338 337 335 334 332 330 324 321 331 332 331 335 334 331 329 331 338 339 338 338 336 335 335 334 335 337 337 336 336 335 334 334 334 334 333 333 332 331 330 331 332 331 331 332 334 335 334 332 331 331 332 331 332 332 331 331 330 329 327 327 328 328
346 346 347 347 346 345 343 343 344 343 342 341 341 342 340 340 340 340 340 341 339 339 338 338 337 335 334 333 330 325 324 329 331 331 331 332 334 333 333 338 339 337 337 335 335 337 336 336 337 337 336 336 335 335 334 334 334 333 331 332 331 330 331 331 330 333 332 333 334 332 329 327 328 331 331 331 332 332 330 329 328 327 327 328 328
347 346 347 347 346 345 343 343 343 343 341 341 341 341 340 340 341 339 340 340 339 339 338 337 337 335 335 335 329 325 328 329 330 330 329 331 335 335 336 338 338 337 335 334 335 336 338 337 337 337 337 335 334 335 334 334 333 332 332 331 330 330 331 331 330 333 334 333 333 331 329 330 331 332 330 330 331 331 329 328 328 327 328 328 327
347 345 346 347 346 345 343 342 343 343 341 340 340 340 340 340 341 339 339 339 339 338 337 337 338 335 335 336 330 327 330 330 329 330 329 329 331 334 338 335 335 337 334 333 334 335 338 335 333 335 337 335 335 336 334 333 333 331 332 330 328 330 331 331 332 333 331 330 331 332 332 332 332 332 330 329 329 328 327 328 328 327 327 327 324
347 345 346 347 346 344 342 342 343 342 341 340 340 340 340 339 340 339 338 339 339 338 337 337 337 336 336 336 332 328 330 330 331 331 330 328 330 335 338 333 332 336 334 333 334 334 335 332 329 331 335 336 336 336 330 328 332 332 331 331 329 330 330 329 331 332 329 329 331 332 332 330 330 330 328 326 327 327 327 328 328 327 327 325 322
346 344 345 346 346 344 342 343 342 341 341 341 340 340 340 339 339 339 339 339 339 338 337 337 337 336 336 335 334 330 329 331 332 332 330 328 332 337 336 329 331 336 334 333 334 332 331 330 331 332 335 337 336 334 326 321 329 332 331 332 328 327 325 323 326 331 332 331 330 330 328 327 323 322 324 325 326 327 326 326 326 326 325 323 320
346 345 345 345 345 343 342 344 342 341 341 341 339 339 339 339 339 339 339 338 338 338 337 336 337 337 336 336 336 333 330 332 332 332 330 328 333 337 335 329 330 335 333 333 334 330 328 329 331 331 334 337 336 332 323 321 331 333 332 333 330 328 325 323 324 328 332 331 328 326 324 320 310 312 322 325 325 326 325 324 321 317 314 315 317
346 347 345 345 344 343 342 343 342 342 342 340 339 339 339 338 337 338 338 337 337 338 336 335 335 334 335 336 337 336 334 335 335 333 331 332 335 336 334 330 331 334 333 332 333 330 326 327 328 327 331 335 336 331 322 323 330 331 331 333 333 332 329 328 328 327 329 330 328 325 322 318 309 310 318 320 323 324 322 318 312 308 308 312 313
347 346 345 344 344 343 342 343 342 342 341 340 340 339 339 338 337 337 337 337 337 337 334 333 333 332 334 336 337 337 337 338 336 334 334 336 337 333 330 331 331 332 332 332 332 329 327 328 328 328 331 335 336 333 325 320 320 322 330 334 334 335 334 332 331 329 329 329 329 326 325 323 315 310 312 314 320 321 318 314 311 312 315 316 315
347 346 345 344 343 343 342 343 343 341 340 340 340 339 338 338 337 337 337 337 336 335 335 335 335 334 335 337 337 336 335 335 333 332 333 336 336 331 329 331 331 332 332 332 331 330 330 331 331 331 334 335 335 334 328 320 315 319 331 334 331 333 334 332 332 331 330 330 329 328 326 326 319 310 309 317 322 320 318 317 316 317 318 317 315
347 346 345 344 343 343 342 342 343 341 340 340 339 338 337 337 337 336 336 338 336 335 337 337 336 336 336 335 335 334 333 332 330 332 334 334 333 330 330 331 331 332 333 332 331 331 331 331 331 333 334 335 335 334 332 323 313 315 326 331 330 333 332 330 331 332 331 330 329 328 326 326 321 309 307 319 324 320 316 315 314 315 316 315 312
347 345 345 344 343 343 343 342 342 341 340 340 339 338 337 336 336 336 336 337 337 337 337 337 336 336 335 334 334 335 333 330 331 334 334 333 330 329 330 332 332 332 331 331 331 329 329 331 333 334 334 333 333 334 333 326 315 313 317 321 329 332 330 327 329 331 331 330 329 328 326 325 319 308 306 317 323 319 311 308 308 311 313 311 308
347 345 345 344 343 344 343 343 342 342 341 340 339 338 338 336 335 336 335 336 337 337 335 336 337 335 334 334 335 334 331 329 332 333 331 331 330 329 331 332 332 332 331 330 330 329 330 332 333 333 332 331 331 333 332 327 324 322 316 314 320 322 319 319 324 328 330 329 329 326 324 322 317 312 310 313 321 319 310 308 308 307 311 309 307
346 345 344 344 343 343 343 343 342 342 341 339 339 337 338 336 334 335 336 336 336 335 335 336 337 334 333 334 334 332 330 330 333 334 332 329 329 330 332 333 333 332 332 332 332 332 331 333 333 332 330 329 331 332 329 327 330 328 319 316 321 321 317 314 317 325 327 326 328 324 321 319 316 317 316 312 318 318 309 312 312 308 309 309 307
345 344 343 343 344 344 343 343 342 341 341 339 339 338 337 336 335 335 335 335 335 336 336 336 335 334 333 334 333 331 332 331 332 333 332 329 331 333 333 334 334 333 333 333 333 333 333 333 332 328 327 327 330 329 323 324 328 326 320 322 327 328 325 318 314 320 324 322 324 322 319 317 317 321 320 313 316 316 310 312 313 307 307 306 306
343 342 343 344 344 344 343 343 342 341 341 339 338 338 337 337 336 335 335 334 336 337 336 335 335 334 333 333 332 331 332 332 331 331 332 333 334 334 333 333 334 333 334 334 333 333 333 332 329 324 322 323 324 321 317 320 321 319 319 321 325 327 327 324 317 318 322 320 320 320 317 316 317 322 320 313 313 314 311 312 311 307 305 303 305
344 342 344 345 344 344 343 342 342 341 340 339 338 338 337 337 336 334 334 335 336 337 336 333 333 332 332 332 331 331 332 331 331 332 333 334 333 333 334 334 334 333 334 333 332 331 329 327 324 319 316 316 316 314 313 316 315 313 315 316 321 325 324 322 318 318 321 319 318 319 316 314 317 319 318 313 312 312 312 313 311 309 305 303 306
Wind_Speed
18 17 15 15 14 14 14 15 15 15 15 15 15 13 12 10 8 7 8 9 8 8 7 7 7 7 7 7 7 7 7 7 7 6 6 6 6 6 6 7 7 7 7 7 7 7 7 7 7 7 8 7 6 8 11 14 16 16 15 16 15 15 15 14 14 13 12 12 12 13 13 13 12 11 11 11 11 11 12 12 13 12 12 11 10
21 19 17 17 15 15 14 15 15 15 15 15 15 14 12 10 8 8 8 9 8 8 7 7 6 6 6 6 7 7 7 7 6 5 5 5 4 5 5 6 6 6 6 5 5 6 6 6 7 8 8 7 9 13 16 17 17 16 15 15 15 15 14 13 13 12 12 12 12 14 15 14 13 12 11 11 11 11 11 11 11 11 11 11 10
22 20 19 18 16 15 14 15 15 14 15 15 15 14 13 11 9 9 9 9 8 8 7 7 6 6 6 6 6 6 6 6 5 4 4 4 3 3 3 4 4 4 4 4 3 4 5 5 7 7 8 11 15 17 18 17 16 16 15 15 14 14 13 12 12 12 12 11 12 13 15 15 13 12 12 11 11 10 10 10 10 10 10 10 11
20 22 20 19 17 16 15 15 15 15 15 15 16 15 13 12 11 10 10 9 8 7 7 7 6 6 5 5 6 6 5 4 4 4 4 4 4 4 3 3 3 3 3 4 3 4 5 6 8 9 12 16 17 18 17 17 16 15 14 14 13 12 12 12 11 12 13 14 14 13 15 15 12 12 11 11 11 10 10 9 9 10 10 10 10
19 23 20 20 18 16 15 15 15 14 15 16 16 15 14 13 12 11 10 9 8 8 7 7 6 5 5 5 5 5 4 4 4 5 5 6 5 5 4 3 3 3 4 5 6 8 8 8 10 13 15 17 17 17 16 16 15 14 13 13 12 11 11 11 11 13 16 18 16 14 13 13 11 11 10 10 10 9 9 8 9 9 9 10 10
20 23 20 20 18 18 16 16 16 14 15 16 16 15 15 14 13 11 10 9 8 8 7 7 6 5 5 5 4 4 3 4 5 6 6 6 5 5 4 3 3 4 6 7 9 10 10 12 13 15 16 16 16 16 15 15 14 13 12 11 10 10 10 11 11 14 16 17 15 13 10 8 10 10 10 10 9 9 8 8 8 9 9 10 10
20 22 20 20 19 19 17 16 16 15 15 15 16 15 15 14 13 12 10 9 9 8 8 7 6 5 5 4 4 3 3 4 5 6 7 6 6 5 4 4 4 5 8 9 11 12 13 14 14 15 15 15 15 15 14 13 12 11 11 10 10 10 10 10 11 14 15 14 13 13 6 5 8 9 9 9 9 9 9 9 9 9 10 10 10
20 22 21 21 20 19 18 17 16 16 16 16 16 16 15 14 13 12 11 9 9 8 7 7 6 5 5 4 4 3 3 4 5 6 6 6 6 6 6 6 7 8 10 11 13 14 14 15 15 15 15 15 14 14 13 12 11 10 10 10 10 10 10 9 10 13 14 14 11 10 5 6 7 8 9 9 9 9 9 9 9 9 9 10 10
19 22 23 22 20 19 18 17 17 17 16 16 16 16 15 14 13 12 11 9 9 8 7 7 6 6 5 4 3 4 4 4 5 7 7 7 7 7 7 8 9 10 12 13 14 15 15 15 15 14 14 14 13 13 11 11 10 9 9 10 10 9 10 9 11 13 14 14 7 5 6 4 6 8 9 9 9 9 9 9 9 8 8 8 8
18 22 24 22 21 20 19 18 17 17 16 17 16 17 16 14 13 12 11 9 9 8 7 7 6 6 5 4 3 4 4 4 5 8 8 8 8 8 9 10 11 12 13 14 16 16 16 15 15 14 13 13 12 11 10 10 9 9 9 9 9 8 8 9 11 12 13 11 6 4 3 2 6 9 9 10 10 10 10 9 9 8 7 7 7
16 22 24 22 21 20 19 18 18 17 16 16 16 16 16 15 13 12 11 9 9 8 7 7 6 5 5 4 3 3 4 5 7 9 9 9 9 10 10 11 12 13 14 15 16 16 15 15 14 13 13 12 11 10 9 9 8 8 7 7 7 6 7 8 9 10 12 9 5 4 3 4 5 10 11 10 11 11 11 9 9 8 8 7 8
15 21 25 23 21 20 20 19 18 17 17 16 16 15 15 15 14 13 11 10 9 8 7 7 6 5 5 4 3 3 4 6 7 9 9 9 10 10 11 12 12 13 15 16 16 15 15 14 13 12 11 11 10 9 8 7 7 6 6 5 5 5 7 8 8 8 11 6 5 2 3 4 5 10 11 11 11 11 11 9 9 8 9 9 9
18 21 24 23 21 20 19 19 19 18 17 16 15 15 14 14 14 13 11 10 9 8 7 7 6 5 5 4 3 3 4 5 6 8 9 9 10 10 11 12 13 13 14 15 15 15 14 13 12 11 10 9 8 8 7 6 6 5 5 5 4 5 6 7 7 7 8 5 6 3 5 6 7 10 12 12 12 11 11 10 9 9 9 10 10
21 22 22 21 22 21 20 19 19 18 17 16 16 15 14 14 13 13 12 10 9 8 7 7 6 5 5 3 3 3 3 4 5 7 9 9 10 10 11 12 12 13 13 14 14 13 13 12 10 9 9 8 7 7 6 5 5 4 4 4 4 4 4 4 5 6 7 5 5 5 9 9 8 11 13 12 12 11 11 10 10 10 10 10 10
22 21 21 21 22 22 21 20 19 19 17 16 16 15 15 14 13 12 12 11 9 8 7 7 6 5 5 4 3 3 4 4 4 6 8 9 10 10 11 11 11 12 12 12 12 12 12 11 9 8 8 7 7 6 5 3 3 3 2 2 2 2 3 4 4 6 6 5 6 6 9 8 8 11 13 13 12 11 10 10 10 10 11 10 10
20 20 21 20 21 23 22 21 21 19 17 16 16 16 16 14 13 13 11 11 9 8 7 7 6 5 5 4 4 3 4 5 5 5 6 7 9 10 10 10 10 10 11 11 11 11 11 10 9 9 8 7 6 5 3 2 1 1 0 1 1 2 2 3 3 4 6 5 6 7 10 9 9 10 13 13 11 11 10 10 10 11 12 12 12
16 18 19 19 21 23 24 24 22 20 18 17 16 16 16 15 13 13 11 11 9 8 8 7 7 6 6 5 4 4 5 5 6 6 6 7 8 9 9 9 9 9 9 9 9 10 10 10 9 9 8 7 6 4 3 2 2 2 2 2 3 3 4 4 2 3 5 5 7 9 11 9 11 12 14 15 11 10 10 10 11 12 12 13 13
12 13 16 17 19 22 25 25 23 22 20 17 16 15 15 15 14 13 12 10 9 9 8 7 7 6 6 6 5 5 6 6 7 7 8 7 7 7 8 8 8 8 8 8 8 8 8 8 7 7 6 5 4 3 2 1 2 3 4 5 5 5 6 5 3 4 6 7 8 8 10 11 13 13 15 16 13 10 10 10 11 12 12 13 13
15 12 12 13 17 22 25 25 24 23 21 19 17 15 14 14 14 13 12 11 10 9 9 8 7 7 7 6 5 5 6 7 7 8 8 7 7 7 8 8 8 7 7 7 7 7 6 6 6 5 4 4 3 2 3 3 4 6 8 9 9 8 7 6 3 6 8 7 8 9 11 13 13 14 16 17 13 11 11 11 12 12 13 13 13
16 14 12 11 14 21 25 25 24 23 21 20 17 15 14 14 14 13 13 12 11 10 9 9 8 8 7 6 5 5 6 6 7 7 7 8 8 7 7 7 7 7 6 6 6 6 6 5 5 4 4 3 3 4 4 4 7 9 11 12 11 8 7 6 5 8 9 7 8 10 12 12 13 15 17 16 13 12 12 12 13 13 13 13 13
17 16 15 12 13 19 25 24 22 21 21 20 17 16 14 13 13 13 13 12 11 10 10 9 9 8 8 6 5 5 6 7 7 7 7 8 9 8 7 6 6 6 6 5 5 5 5 5 5 4 3 3 3 4 3 3 7 10 12 13 10 6 6 7 8 8 7 9 9 9 11 12 15 17 16 15 13 12 13 13 13 13 13 13 13
19 18 17 16 16 17 21 22 21 19 19 18 16 16 15 13 13 13 13 13 12 11 10 10 9 9 9 7 6 6 6 7 8 8 8 8 9 8 7 7 6 6 6 5 5 5 5 5 4 3 2 2 2 5 5 4 8 10 11 12 10 7 7 9 9 7 6 10 11 10 11 14 16 16 14 13 12 12 12 13 13 13 13 12 12
21 20 18 19 19 16 18 19 19 18 16 16 15 15 15 14 14 13 13 12 11 11 10 9 8 9 9 7 7 6 5 6 8 8 8 8 8 8 7 7 6 6 6 5 5 5 5 4 3 3 3 2 3 6 6 7 8 8 9 10 8 8 8 8 7 6 5 9 11 11 12 14 15 14 12 11 11 11 11 12 12 13 12 11 12
22 21 20 20 19 17 16 15 18 18 13 14 14 14 14 14 14 13 13 12 11 10 9 7 6 7 7 7 7 5 6 7 8 7 6 7 8 7 7 7 7 6 6 5 4 5 4 4 3 5 5 4 4 6 8 8 9 8 8 9 8 8 7 6 5 5 6 9 9 10 12 13 13 11 11 10 10 10 10 11 12 12 11 11 11
22 20 21 22 20 18 17 15 20 19 13 14 13 12 14 13 13 13 13 12 11 9 8 6 5 5 5 5 6 7 9 9 6 6 7 8 7 6 7 7 6 6 5 4 3 3 3 3 2 6 7 5 5 7 8 8 8 7 8 8 8 8 7 5 6 6 6 6 8 10 11 11 11 11 10 10 9 10 10 10 11 12 12 11 12
22 20 22 23 21 20 18 16 21 19 14 15 12 11 12 13 14 14 13 13 12 9 8 7 6 8 7 7 9 10 11 10 6 7 8 8 7 6 6 6 6 5 4 2 2 1 2 4 3 7 8 7 7 6 5 6 5 5 7 7 6 6 7 6 6 6 5 6 8 9 11 11 11 11 10 10 10 10 10 10 11 12 12 12 12
22 21 22 23 22 22 20 18 21 19 16 16 13 10 11 13 15 13 13 12 13 11 9 9 9 11 13 13 13 12 11 9 7 9 8 7 6 5 4 5 4 4 3 2 1 2 4 5 6 7 6 6 6 6 6 5 5 5 4 5 5 5 6 6 6 6 6 7 9 10 11 12 12 11 11 11 9 9 10 11 11 11 12 12 13
22 21 23 25 23 23 22 21 22 19 18 18 16 12 9 14 15 12 12 12 12 12 10 11 12 13 15 16 15 12 11 8 9 9 10 8 5 4 3 4 2 2 2 3 2 3 4 6 6 9 9 7 7 7 4 4 6 6 4 4 5 5 6 5 5 6 5 7 10 10 12 13 12 12 11 10 9 9 11 11 12 12 12 13 13
22 22 22 24 24 24 24 24 23 18 19 20 17 14 11 15 16 12 14 14 12 13 13 13 13 13 13 14 15 13 13 10 12 11 10 10 7 7 9 6 2 2 4 3 5 6 8 10 10 11 9 6 6 7 5 3 4 5 4 4 5 4 4 4 4 5 5 6 8 10 12 13 13 13 11 10 10 11 11 12 12 12 12 13 13
22 22 23 23 24 25 23 23 22 19 21 22 19 15 13 18 18 14 16 16 14 15 15 13 11 10 11 12 15 14 14 11 12 10 9 9 10 13 13 9 8 8 8 8 9 10 10 10 10 8 7 5 5 6 5 3 3 4 3 4 4 3 2 3 4 4 3 4 6 9 10 11 12 12 11 11 12 12 12 13 13 13 14 14 14
23 23 24 23 24 25 23 22 21 19 21 22 20 17 14 18 18 15 16 17 17 17 16 13 10 10 10 12 15 15 15 12 11 9 10 11 14 15 13 11 11 12 10 10 9 8 9 8 7 5 5 5 4 4 3 2 2 3 2 2 3 2 1 3 4 3 4 5 5 8 9 10 11 11 11 12 14 15 14 15 15 15 15 16 15
23 24 23 23 25 26 24 23 21 20 21 21 21 18 15 18 18 15 15 17 19 19 16 14 11 10 11 11 14 16 16 14 13 13 13 13 13 11 12 11 10 10 9 9 8 8 8 7 6 5 5 3 2 3 2 1 2 2 1 2 2 1 2 3 3 3 5 6 4 6 7 8 10 10 11 13 15 16 16 16 16 16 17 17 17
24 25 22 22 27 27 25 23 21 22 23 21 21 21 18 18 18 16 16 17 19 18 17 15 11 12 14 13 13 17 17 16 16 15 12 12 11 10 12 9 8 9 7 7 7 6 6 5 4 4 3 1 1 2 1 1 1 1 1 2 2 2 2 2 2 3 4 3 3 5 7 8 9 10 11 14 16 16 17 17 17 17 17 18 17
25 27 24 24 27 27 26 25 22 22 23 22 22 22 20 19 18 18 19 19 19 18 16 15 13 14 15 14 13 17 18 16 16 15 14 14 13 12 12 9 8 8 6 6 5 4 5 5 5 3 2 2 2 2 1 2 2 0 3 1 1 1 3 1 1 2 2 3 4 4 4 6 9 11 12 13 15 15 17 18 18 19 18 17 17
26 29 28 26 27 25 25 26 24 23 24 23 23 22 20 19 17 18 20 19 18 17 16 15 13 13 14 13 13 17 18 16 15 15 15 13 12 12 11 8 8 8 6 6 4 5 5 5 4 2 1 2 2 2 2 3 2 1 2 2 1 3 4 1 1 2 3 4 4 3 2 4 6 9 12 13 15 14 16 18 19 19 18 18 18
27 29 30 27 26 25 24 25 26 26 25 25 24 22 20 18 17 18 18 19 19 17 17 17 14 14 15 12 12 14 17 16 14 13 13 11 10 9 8 8 8 7 6 6 6 6 5 4 3 1 2 2 2 2 2 1 1 1 4 3 1 3 2 2 3 4 4 5 4 5 5 7 7 7 8 11 14 14 14 17 18 19 19 19 20
28 29 31 28 27 26 24 24 26 26 26 26 25 23 22 20 19 20 17 18 19 18 18 18 16 15 15 13 11 13 15 14 12 11 11 11 10 8 9 8 7 6 5 5 6 7 6 5 4 3 3 2 2 3 3 2 1 1 3 2 3 3 2 2 5 4 4 5 4 6 9 11 9 7 8 7 10 13 13 16 17 17 19 20 21
29 29 30 30 28 26 24 25 26 25 25 26 25 23 23 22 20 20 18 18 18 17 17 17 16 16 14 14 13 14 14 12 12 10 11 11 9 9 10 7 5 6 6 5 6 7 6 6 6 5 4 4 3 4 6 4 3 1 1 3 1 4 2 2 4 3 2 4 6 6 8 8 3 3 7 6 9 12 12 14 16 17 18 19 21
29 29 30 29 28 25 24 26 25 26 26 26 26 22 22 22 19 19 19 19 18 17 16 17 17 17 16 16 14 14 13 12 13 11 11 10 7 10 9 5 7 8 6 5 7 7 5 6 6 5 4 4 4 4 4 4 3 2 2 1 2 5 3 4 5 1 2 5 6 2 1 1 4 2 5 6 8 10 7 8 11 14 17 19 20
28 29 31 29 28 25 25 26 24 27 27 26 27 23 21 22 18 18 18 19 19 18 17 16 17 17 17 16 14 14 13 12 13 11 11 9 8 11 9 7 10 8 6 7 7 7 5 5 6 5 3 3 6 5 3 2 3 3 2 2 2 4 3 3 3 3 4 3 3 3 5 4 5 4 4 7 7 7 3 4 7 10 16 18 19
29 30 32 30 28 26 26 27 25 27 28 27 29 25 22 22 20 19 19 20 19 17 17 16 17 18 17 16 13 13 13 12 13 12 11 8 9 10 8 9 11 8 8 8 8 6 5 5 5 4 3 3 6 6 2 2 4 4 3 3 3 1 1 2 1 2 3 1 4 5 5 6 8 5 3 6 5 6 7 10 10 12 12 12 13
32 32 32 29 28 27 26 28 27 27 29 28 27 24 22 22 21 20 18 19 20 18 18 18 18 18 16 15 13 12 11 10 11 10 9 10 11 9 6 9 11 9 9 9 8 6 5 6 5 4 5 5 7 6 3 4 4 5 7 6 5 2 1 2 0 1 3 3 7 6 4 8 11 7 3 3 1 5 10 11 12 13 12 9 10
32 31 33 30 29 28 27 29 28 28 28 25 25 23 21 20 19 19 17 17 19 18 17 16 16 15 14 13 12 13 12 11 11 10 10 9 6 5 6 9 10 9 9 9 9 7 7 6 4 5 5 4 7 6 3 5 5 6 9 7 7 5 3 2 1 1 1 3 7 6 5 10 13 10 7 5 3 6 10 13 14 13 14 13 13
31 31 33 32 30 30 30 29 29 28 26 24 24 23 21 19 17 17 16 16 17 18 15 14 15 14 13 14 15 17 15 13 13 13 13 7 2 2 9 9 9 10 10 9 9 8 8 6 5 5 5 4 6 7 2 2 4 7 9 8 7 6 4 3 2 1 2 2 6 7 8 11 14 13 11 10 8 9 10 13 14 14 14 13 14
32 32 34 34 32 31 30 29 27 25 24 24 24 22 22 22 19 18 18 16 16 17 15 14 15 15 15 17 17 16 13 12 12 10 10 6 1 4 9 9 9 10 9 9 10 9 7 6 5 3 3 6 4 6 5 2 3 5 6 8 5 4 5 5 4 1 2 2 5 6 8 11 13 13 10 10 8 10 10 12 12 13 12 12 13
34 34 34 34 32 30 28 26 25 24 23 25 23 22 24 26 24 22 21 20 17 18 18 17 17 17 17 17 16 14 12 13 12 9 7 5 4 7 8 8 9 10 10 10 10 10 8 7 5 2 5 8 6 3 5 1 3 4 3 6 6 4 6 5 6 4 4 4 2 4 6 10 12 12 10 9 6 11 13 12 11 12 10 12 15
35 35 35 33 31 29 27 26 26 25 25 25 23 23 24 25 25 24 23 22 20 18 19 19 19 19 18 17 16 14 14 13 11 10 10 8 8 10 9 9 11 11 11 11 11 11 11 9 8 9 10 10 10 6 5 1 2 1 2 4 4 4 4 4 6 8 6 5 2 3 6 10 11 11 11 10 6 10 14 12 12 14 11 15 17
36 36 36 34 33 31 28 27 26 25 25 25 24 25 25 23 24 23 21 22 19 16 18 20 20 20 19 17 16 15 14 13 11 11 10 9 9 10 11 11 11 12 12 12 12 11 11 11 12 14 13 12 13 11 10 7 5 3 2 4 4 2 1 2 6 8 5 4 3 3 7 9 11 9 11 12 6 10 15 11 11 16 15 17 18
35 36 36 35 35 32 28 27 26 25 26 26 25 26 24 22 23 22 20 20 18 16 19 21 21 20 20 17 15 16 15 14 13 11 10 10 10 10 12 11 10 12 11 12 13 11 12 13 13 14 13 14 16 13 12 13 9 6 5 7 7 4 1 0 5 7 5 4 5 6 6 6 8 6 9 11 6 9 15 10 10 17 18 19 18
33 35 35 33 33 32 29 28 26 25 26 26 27 27 24 22 24 23 22 21 19 19 21 20 20 20 19 17 15 16 16 14 13 12 11 11 10 11 13 12 10 11 11 11 12 13 15 16 13 11 10 13 15 12 12 13 10 7 7 9 11 10 4 2 4 7 5 4 5 6 3 3 4 3 5 10 6 9 12 8 12 18 20 19 16
32 33 34 32 32 32 30 29 26 25 26 26 27 27 24 22 24 24 24 23 22 21 21 20 20 20 19 18 16 17 17 15 13 14 12 11 11 11 12 12 12 13 12 10 11 13 15 14 10 9 10 12 12 10 10 11 9 8 8 8 11 13 9 5 6 8 7 5 6 6 2 2 1 1 6 10 8 8 8 7 13 19 20 19 16
Wind_Direction
182 181 178 169 163 158 151 143 141 144 142 142 141 142 143 145 143 136 132 126 122 115 108 103 96 94 94 94 95 93 92 94 93 92 92 93 92 87 86 87 91 93 95 99 96 88 77 67 53 34 20 17 51 91 105 108 107 105 104 103 103 102 98 95 92 88 83 78 73 64 54 48 45 41 40 39 36 31 27 26 24 23 19 19 15
172 175 179 173 169 164 157 147 144 146 145 144 142 144 146 148 146 140 138 132 127 118 109 103 97 96 97 98 96 93 93 94 93 88 85 85 86 91 93 95 101 104 106 102 92 84 72 57 39 26 29 58 93 106 110 109 108 107 105 104 102 100 96 93 88 82 76 70 66 59 49 41 41 39 39 39 37 34 30 31 27 21 17 14 12
166 171 178 174 174 169 161 154 148 149 149 146 145 147 149 148 149 146 143 136 129 121 115 109 101 100 99 100 98 93 92 94 93 82 76 74 77 91 104 118 123 125 122 108 96 82 70 54 43 43 67 95 107 110 110 109 109 108 105 103 99 96 92 88 84 80 73 65 61 59 52 40 38 41 40 42 41 39 36 35 33 28 24 18 14
169 172 177 175 177 174 168 159 153 154 153 150 149 148 149 148 152 150 145 140 133 127 120 116 109 106 101 97 94 89 86 85 86 81 80 83 90 97 108 125 124 125 114 108 103 87 82 72 67 78 96 106 110 110 109 109 109 108 105 100 96 92 88 86 83 79 68 58 50 48 51 39 35 44 43 46 45 43 42 40 39 35 31 26 18
177 176 177 177 178 178 174 164 159 159 157 153 151 149 148 150 155 152 147 144 138 132 123 120 116 113 104 92 82 76 73 69 81 90 96 96 98 100 104 108 105 110 102 102 97 94 96 92 92 99 107 110 110 110 109 109 108 106 102 97 94 92 90 89 86 78 67 62 53 43 46 34 33 48 48 50 50 47 44 41 40 37 34 32 25
186 179 179 180 178 180 180 171 164 164 162 156 153 150 149 152 156 153 149 147 141 134 127 127 122 120 107 93 78 64 62 74 91 95 96 95 95 96 96 100 103 111 108 107 102 103 105 103 106 110 112 113 112 111 110 109 106 103 99 97 95 94 94 94 87 77 71 69 62 55 53 21 25 42 43 43 41 42 38 33 35 36 31 32 31
192 181 184 185 181 181 183 177 169 169 167 159 155 151 152 155 156 155 153 149 142 136 133 134 128 123 111 99 83 61 68 88 98 95 92 91 92 95 96 102 109 115 114 112 111 112 111 112 114 116 117 116 115 112 111 108 105 102 99 98 96 95 96 95 85 77 75 71 64 70 73 331 5 26 28 31 24 29 28 23 26 30 28 25 26
197 185 187 189 185 182 185 181 173 174 171 163 158 154 156 156 158 157 155 150 142 141 140 138 132 128 119 110 92 80 90 98 104 98 94 94 95 96 97 106 114 120 119 117 117 118 118 120 122 123 122 119 117 113 111 107 104 102 100 100 96 97 95 90 80 77 75 67 62 81 83 315 352 18 18 23 14 16 18 16 20 26 27 22 21
198 187 189 193 189 184 187 186 178 178 176 168 162 158 158 159 160 158 156 152 145 146 144 142 138 136 132 121 103 102 108 107 108 104 104 104 102 100 103 110 116 121 121 122 123 124 125 127 129 129 126 122 119 115 112 109 107 104 101 100 99 99 91 79 77 80 76 66 55 100 99 352 2 16 15 16 8 7 6 8 14 18 19 17 16
198 188 191 194 191 189 188 189 184 183 180 172 167 161 162 162 161 159 158 152 150 152 149 148 146 144 140 129 113 116 119 113 111 111 112 112 108 105 109 113 117 122 123 126 127 129 131 133 135 133 129 125 122 119 117 114 110 106 104 102 104 99 83 73 81 87 83 69 41 80 102 338 5 9 10 9 4 2 1 3 6 6 6 4 0
198 189 193 195 194 193 189 193 191 187 184 177 171 166 164 164 163 161 160 156 155 156 156 155 153 152 146 136 123 127 129 123 120 118 118 116 112 110 115 118 120 124 127 130 131 134 137 139 139 135 133 129 128 126 123 120 115 111 107 106 108 92 78 74 83 84 80 68 21 31 330 325 6 2 4 3 2 0 360 1 359 358 355 351 347
186 193 196 193 195 196 191 194 195 191 186 182 176 171 169 166 165 164 162 159 160 161 163 161 159 159 153 148 133 139 143 134 130 124 125 123 118 118 120 122 123 126 130 133 136 139 141 143 141 139 137 135 134 131 129 125 120 117 111 109 108 89 83 77 79 77 77 55 355 26 315 338 346 351 2 359 359 357 355 354 351 351 347 345 343
173 198 199 190 193 198 195 196 197 195 188 185 180 176 174 171 169 167 166 162 164 168 168 167 167 166 161 159 143 151 153 147 143 135 133 130 127 127 127 128 127 128 132 137 141 143 145 146 144 142 140 140 139 137 135 132 129 123 114 104 97 96 90 73 77 77 70 25 353 11 296 316 330 346 357 355 358 353 350 347 349 351 348 348 344
181 201 201 190 192 195 197 198 198 196 190 188 183 180 179 177 175 171 171 166 167 171 173 173 171 174 171 168 157 156 162 165 159 146 142 140 137 136 136 136 134 134 137 141 145 148 149 149 148 146 145 148 146 146 143 135 135 125 118 99 95 102 80 53 61 59 50 5 347 334 303 310 324 340 348 352 356 348 345 344 352 355 354 354 348
194 201 203 194 191 192 195 198 200 197 190 190 185 184 184 182 180 178 177 169 170 174 178 176 172 180 181 181 171 168 173 185 183 160 153 150 149 146 145 144 143 142 142 145 149 152 155 155 155 153 153 156 157 161 157 144 136 126 121 94 85 74 53 55 57 55 45 354 328 311 300 315 320 331 342 348 351 342 340 343 351 353 353 352 348
203 204 207 199 193 191 193 196 199 198 192 191 188 187 188 187 184 183 182 174 173 176 180 178 176 184 191 192 187 192 186 190 199 187 171 164 159 154 154 154 153 152 151 152 153 156 160 162 162 162 162 163 169 176 182 193 167 133 60 41 13 8 24 36 40 56 44 345 328 311 299 316 316 323 338 343 346 338 336 339 345 347 348 346 343
206 213 211 201 199 193 191 195 196 195 193 190 189 191 189 190 187 187 187 180 177 178 183 184 180 187 198 201 197 204 200 198 202 203 197 184 173 164 163 164 165 164 163 163 161 162 163 166 170 171 175 176 179 183 199 230 259 276 302 313 321 339 344 353 349 61 49 339 321 310 299 310 311 314 329 337 340 333 332 334 336 341 345 344 343
181 205 214 203 201 196 192 194 195 193 191 188 189 191 191 192 190 190 191 187 182 179 187 189 186 192 203 207 207 210 208 207 204 209 210 202 191 179 173 173 176 177 176 176 173 172 171 172 175 181 190 197 202 205 218 257 304 315 324 324 326 333 338 1 30 57 48 349 315 296 299 309 307 309 319 329 332 327 327 327 330 337 340 343 345
160 179 205 203 198 195 194 195 195 194 191 188 187 187 190 193 192 192 193 193 188 183 188 192 191 197 209 213 216 215 214 210 210 215 214 214 210 199 188 182 185 188 189 188 184 185 184 184 189 198 211 229 257 288 317 335 350 352 348 342 336 335 347 4 38 43 30 348 302 282 299 307 308 311 313 322 325 322 323 323 328 333 336 340 345
162 170 178 194 196 193 195 196 196 196 193 189 186 184 185 189 191 192 194 195 192 188 189 193 195 202 213 217 220 217 216 212 212 217 215 217 221 220 210 197 195 196 200 200 198 198 198 201 206 215 230 255 288 317 331 353 7 6 1 357 345 341 8 16 30 33 9 326 292 289 300 303 311 316 314 318 321 320 321 322 326 330 332 335 341
166 169 168 179 188 192 196 195 194 197 195 189 186 182 181 185 188 188 193 195 192 191 191 195 198 205 211 214 221 213 212 212 211 216 211 214 219 223 225 221 216 208 211 213 211 212 214 218 221 230 248 278 315 342 348 15 12 9 7 8 9 14 32 23 21 19 342 304 294 302 309 308 314 317 313 316 320 321 320 320 324 326 328 330 336
169 169 170 172 177 192 196 190 189 198 196 187 185 181 181 184 183 183 189 191 191 192 194 198 200 207 210 208 215 210 210 211 210 217 214 214 216 219 224 226 231 229 227 230 231 232 233 236 242 252 288 320 3 18 10 6 4 8 9 11 25 31 23 13 4 356 329 307 306 309 313 314 315 316 315 317 322 325 323 321 323 325 326 328 334
168 167 170 172 177 185 190 188 185 194 194 182 182 183 185 185 181 181 185 188 189 192 196 202 208 216 215 205 209 203 198 217 216 216 218 215 212 216 221 223 227 233 238 241 246 254 262 266 280 316 342 5 38 27 6 350 354 6 5 6 15 14 9 359 339 331 316 300 304 311 313 314 316 323 327 326 327 329 328 324 324 328 329 330 333
168 167 170 172 177 178 185 186 179 187 185 175 181 183 188 187 183 181 183 186 183 191 197 200 210 222 223 200 200 195 183 213 222 210 213 212 209 211 213 219 219 225 237 241 255 265 277 294 328 10 16 28 31 13 358 340 341 355 350 348 347 345 344 323 305 299 282 284 297 309 314 318 326 337 339 335 335 335 333 330 330 334 337 337 334
167 166 171 172 176 176 181 175 175 186 173 173 185 183 189 185 185 186 185 187 181 189 192 193 190 187 223 204 193 209 199 206 214 202 204 199 198 202 205 212 214 219 228 236 261 273 306 341 19 36 26 14 7 4 358 331 324 332 323 322 321 320 320 305 301 296 292 308 315 314 320 328 336 346 347 346 347 345 344 342 340 342 345 345 339
166 169 172 174 178 175 178 170 176 186 167 178 193 180 184 180 186 187 182 185 180 188 184 187 188 163 191 215 209 218 213 207 201 199 203 189 178 183 191 196 205 212 213 228 243 247 42 43 24 15 6 345 341 341 317 289 283 285 295 303 303 311 313 307 309 316 333 337 327 326 330 335 340 351 357 357 356 358 0 357 355 352 351 352 350
167 174 174 174 179 174 178 173 178 185 163 179 200 184 181 178 184 182 178 185 177 186 185 185 197 172 180 208 219 216 202 201 207 202 203 195 179 168 173 188 188 179 156 123 7 19 28 14 347 326 311 300 292 266 261 290 287 267 288 310 318 325 312 316 334 352 6 337 329 335 336 340 344 353 3 4 5 10 10 8 5 2 359 357 356
168 177 176 175 178 175 180 177 180 186 164 176 199 195 182 173 181 179 179 187 177 180 185 187 197 187 189 210 223 206 175 189 226 215 196 189 184 166 189 222 172 130 142 96 54 332 306 295 276 254 251 254 262 259 263 298 292 289 316 322 325 323 317 339 352 1 11 338 334 337 340 347 349 356 4 8 11 12 11 10 8 6 4 0 357
172 179 179 178 176 176 183 182 184 184 168 173 189 196 184 172 184 188 182 189 183 180 188 194 200 202 211 223 222 195 163 189 227 218 191 173 179 192 194 214 192 198 250 163 170 217 229 242 234 229 239 243 266 274 268 279 300 316 325 317 322 328 337 356 353 5 16 347 336 336 341 348 351 356 2 8 11 10 10 10 10 8 4 359 355
174 180 180 178 176 180 184 188 191 185 175 173 179 191 180 175 191 198 189 189 186 186 194 199 201 215 228 224 214 189 165 196 225 214 189 171 197 209 189 191 195 192 216 201 194 210 216 232 235 228 230 234 256 262 271 318 342 323 314 312 335 14 13 340 2 14 3 351 343 335 340 347 353 359 3 9 9 7 8 5 5 2 360 356 352
176 182 184 179 179 185 184 188 191 179 177 175 178 186 171 174 193 202 193 187 186 193 199 198 200 217 228 220 210 190 169 192 223 209 197 198 213 217 190 186 197 191 204 212 209 218 220 230 238 230 222 233 254 262 292 351 339 315 320 331 352 38 338 330 23 5 340 13 7 337 340 350 358 4 6 8 7 6 3 0 359 355 353 350 347
180 184 189 185 184 189 186 190 190 176 177 176 177 186 175 177 193 197 192 187 188 196 197 195 202 209 223 227 210 192 172 182 214 208 203 215 217 207 193 189 194 196 211 217 210 218 221 222 235 242 240 237 244 257 283 322 310 319 317 15 9 336 331 355 25 0 3 30 17 340 347 359 6 7 7 6 4 1 355 353 351 348 347 345 343
182 182 191 192 188 190 189 191 189 177 179 177 174 184 182 184 194 191 193 195 192 199 196 194 203 199 219 239 217 198 180 183 210 205 198 218 216 200 198 190 192 205 215 217 217 225 222 219 234 246 239 209 220 244 53 255 260 352 283 47 25 296 26 24 16 22 21 30 42 24 4 6 10 4 6 5 360 354 347 344 343 343 343 342 341
181 179 189 195 193 195 192 189 188 179 179 177 175 183 181 184 197 191 195 202 195 201 199 196 207 203 220 242 226 208 191 193 210 199 196 212 211 205 202 193 201 210 212 216 223 225 216 217 218 210 192 150 229 250 10 253 193 326 271 171 302 334 63 11 342 37 31 27 52 75 32 16 16 4 6 3 354 349 344 342 343 345 344 341 341
185 182 189 197 196 199 195 188 188 184 179 176 177 184 180 179 196 196 197 204 197 200 199 198 209 211 222 231 221 213 199 201 210 198 200 207 204 208 202 194 209 213 207 201 194 202 211 214 200 181 173 160 212 226 253 257 180 258 297 82 352 54 72 316 0 36 64 59 29 50 41 27 30 14 11 1 348 343 343 344 345 345 343 341 340
188 185 190 200 198 200 197 186 185 186 182 177 176 183 180 174 193 202 199 201 197 198 199 197 202 210 218 220 214 210 199 201 209 203 203 203 204 216 210 203 215 218 212 196 181 191 204 205 183 183 209 197 236 218 223 255 180 342 48 76 294 81 111 221 98 60 67 84 40 14 5 17 32 24 23 6 340 330 337 343 343 344 341 337 338
189 185 189 197 197 197 197 187 184 185 183 178 176 182 179 172 192 206 199 198 196 199 202 195 201 215 215 215 210 200 196 198 207 207 207 207 202 210 218 215 219 225 223 210 192 187 193 198 184 186 198 200 260 234 209 190 165 64 72 221 238 105 199 216 110 105 89 85 50 18 16 28 30 21 29 17 331 319 333 341 341 342 337 333 334
190 186 189 195 194 194 193 187 186 183 180 178 177 181 180 178 195 204 197 195 193 199 203 190 203 222 213 212 211 200 198 199 209 214 215 216 201 211 227 219 221 229 225 221 207 192 194 206 189 180 198 196 218 235 217 175 144 150 175 249 184 125 182 104 114 154 135 78 54 34 40 48 23 5 27 17 332 328 345 351 346 341 334 334 334
191 187 190 194 193 194 189 182 186 185 178 177 178 179 183 184 191 197 193 192 192 198 197 186 202 217 210 212 211 203 201 202 213 218 223 223 201 221 230 210 221 226 221 220 213 205 209 220 201 182 199 209 213 232 222 162 138 168 176 240 149 160 192 152 154 194 29 76 89 86 141 205 262 298 23 15 345 346 6 1 346 333 327 334 338
188 186 189 193 191 192 185 179 185 184 177 178 179 179 186 184 183 190 193 191 194 198 194 189 202 210 210 214 209 202 203 209 217 219 227 224 211 229 226 218 234 224 211 213 210 219 225 224 207 187 188 221 230 228 223 151 125 131 165 247 191 167 202 199 174 116 64 78 152 239 261 279 310 327 28 32 4 345 326 288 303 308 313 325 334
184 187 189 192 190 190 185 181 184 181 179 181 179 180 186 183 181 189 195 194 194 194 192 193 200 205 210 211 204 202 204 212 221 222 224 216 219 231 213 220 239 219 205 204 207 221 225 221 203 195 217 238 249 242 208 131 122 131 171 224 241 222 210 215 216 118 100 286 276 295 299 331 355 0 52 56 23 330 307 306 313 313 318 323 331
184 187 186 188 188 189 186 183 186 185 186 185 178 180 186 185 185 187 193 196 193 193 197 199 200 205 207 204 204 205 205 214 225 226 228 227 226 223 208 225 230 218 213 202 205 214 213 224 200 196 239 239 260 266 193 175 176 172 172 185 225 266 93 128 336 102 138 247 290 311 323 348 2 9 39 71 45 323 316 329 341 340 354 359 342
185 184 185 189 190 190 187 185 189 189 189 185 177 181 186 187 188 188 192 195 193 196 203 204 201 202 199 196 204 204 201 209 217 217 224 241 247 220 226 233 217 216 224 203 198 203 198 216 200 200 233 239 271 283 201 205 213 173 160 174 212 210 157 111 40 29 112 267 291 318 337 347 358 2 17 43 19 338 332 345 2 7 15 8 348
184 183 186 191 193 192 189 188 191 190 186 182 179 182 185 185 187 191 194 193 196 198 200 200 197 198 195 195 206 208 205 209 216 218 216 221 6 222 221 223 213 214 216 197 190 194 187 194 208 209 206 214 268 294 281 223 201 171 170 185 208 199 158 122 176 216 33 290 289 322 337 345 356 357 17 43 10 349 355 357 8 19 16 1 352
184 186 190 192 193 191 189 190 191 187 182 182 183 181 181 183 186 193 193 187 194 196 187 191 197 199 199 202 211 211 210 217 224 229 218 198 110 227 215 207 215 210 194 187 185 184 183 194 210 220 199 191 227 295 314 346 172 181 191 188 179 167 150 136 164 188 71 184 273 324 340 342 352 357 25 50 0 340 3 4 11 24 11 350 352
185 188 193 192 192 192 189 189 187 183 182 185 184 179 181 185 185 191 192 182 187 193 186 191 201 203 203 207 211 206 208 220 224 224 216 195 194 221 211 189 200 199 187 190 188 185 191 192 184 196 227 196 174 259 294 3 141 160 178 182 174 180 181 167 159 140 123 159 249 337 347 337 346 7 32 50 6 341 1 8 14 25 6 345 351
187 189 194 193 194 194 188 187 187 184 185 187 183 181 186 190 187 189 193 185 186 194 192 195 203 206 207 208 209 204 209 219 215 212 212 200 200 213 206 188 192 194 189 191 192 192 194 189 182 198 218 198 167 189 227 175 127 147 163 172 174 177 176 176 158 137 132 163 208 341 2 344 346 12 29 45 32 343 357 12 13 19 5 352 359
189 190 194 194 194 194 188 188 189 186 187 186 183 186 188 189 186 185 192 190 187 192 195 199 204 207 209 208 205 204 210 211 198 199 208 201 199 201 191 181 182 187 187 187 188 191 195 200 207 217 224 200 175 184 196 178 167 192 159 128 108 86 112 162 155 132 115 149 160 58 30 360 351 7 16 34 45 340 359 21 6 11 9 357 4
191 191 194 193 193 195 191 188 188 187 188 184 183 190 191 188 183 182 190 189 184 193 200 203 204 207 208 206 204 203 205 203 193 196 205 202 197 186 176 172 170 179 185 188 190 191 204 218 224 228 227 200 186 193 192 181 181 182 151 131 116 94 15 210 154 139 118 125 115 81 55 16 354 348 359 21 32 343 7 29 355 3 9 1 9
192 192 192 192 192 194 191 187 188 188 187 184 184 191 193 189 185 184 188 185 184 196 204 204 204 206 206 202 202 203 201 198 194 199 197 184 179 169 164 165 165 171 181 190 197 203 215 227 229 220 205 190 191 200 192 185 192 191 171 159 147 144 158 174 150 135 120 133 111 74 63 43 350 305 355 16 19 357 11 19 348 357 5 4 13
188 189 190 191 191 191 189 187 190 190 188 186 186 191 194 191 189 186 186 185 188 198 204 204 204 205 206 204 204 202 200 198 197 202 194 172 171 170 160 162 170 178 191 202 211 218 220 220 213 191 180 180 185 187 180 180 191 193 185 178 164 162 170 175 164 143 129 140 120 82 54 69 50 279 7 17 33 25 10 353 346 353 1 8 17